DW4466 Weather Reports


Display with metric or nautical units.
time (UTC)temp
F
wind
direction
speed
MPH
gust
MPH
rain 1hr
in
rain 24hr
in
rain mn
in
humidity
%
barometer
mb
20260902215005 77 300 2.0 4.0 0.00 0.03 0.03 89 1015.5
20260902214540 77 269 0.0 2.0 0.00 0.03 0.03 89 1015.4
20260902214012 77 23 0.0 4.0 0.00 0.03 0.03 89 1015.5
20260902213545 77 286 1.0 7.0 0.00 0.03 0.03 88 1015.5
20260902213100 77 252 3.0 7.0 0.00 0.03 0.03 88 1015.6
20260902213002 77 279 2.0 7.0 0.00 0.03 0.03 88 1015.6
20260902212540 77 282 0.0 5.0 0.00 0.03 0.03 89 1015.6
20260902212010 77 15 3.0 6.0 0.00 0.03 0.03 88 1015.6
20260902211546 77 306 3.0 5.0 0.00 0.03 0.03 90 1015.6
20260902211015 76 302 1.0 4.0 0.00 0.03 0.03 91 1015.6
20260902210553 76 358 0.0 4.0 0.00 0.03 0.03 92 1015.5
20260902210021 76 298 1.0 5.0 0.00 0.03 0.03 91 1015.5
20260902205554 76 308 1.0 4.0 0.00 0.03 0.03 92 1015.5
20260902205022 75 226 0.0 4.0 0.00 0.03 0.03 93 1015.4
20260902204556 75 318 1.0 4.0 0.00 0.03 0.03 95 1015.3
20260902204028 74 205 0.0 2.0 0.00 0.03 0.03 94 1015.2
20260902203559 74 205 1.0 2.0 0.00 0.03 0.03 95 1015.3
20260902203501 74 205 1.0 2.0 0.00 0.03 0.03 95 1015.2
20260902203017 74 205 1.0 2.0 0.00 0.03 0.03 94 1015.2
20260902202552 74 296 0.0 0.0 0.00 0.03 0.03 95 1015.3
20260902202034 73 296 0.0 1.0 0.00 0.03 0.03 95 1015.4
20260902201601 73 20 0.0 3.0 0.00 0.03 0.03 95 1015.4
20260902201509 73 20 0.0 3.0 0.00 0.03 0.03 95 1015.4
20260902201035 73 299 1.0 2.0 0.00 0.03 0.03 94 1016.0
20260902200506 73 276 0.0 3.0 0.00 0.03 0.03 94 1015.9
20260902200020 73 44 0.0 3.0 0.00 0.03 0.03 94 1015.9
20260902195555 73 47 0.0 2.0 0.00 0.03 0.03 94 1015.9
20260902195035 73 280 0.0 4.0 0.00 0.03 0.03 94 1016.3
20260902194600 74 1 1.0 5.0 0.00 0.03 0.03 94 1016.3
20260902194504 74 1 1.0 5.0 0.00 0.03 0.03 94 1016.3
20260902194038 74 29 1.0 6.0 0.00 0.03 0.03 94 1016.4
20260902193510 74 298 4.0 6.0 0.00 0.03 0.03 93 1016.7
20260902193045 74 263 2.0 4.0 0.00 0.03 0.03 93 1016.2
20260902192509 74 354 2.0 3.0 0.00 0.03 0.03 92 1015.8
20260902192042 74 138 0.0 4.0 0.01 0.03 0.03 91 1015.7
20260902191516 74 138 1.0 4.0 0.02 0.03 0.03 92 1015.7
20260902191047 74 133 2.0 4.0 0.03 0.03 0.03 92 1015.8
20260902190519 74 233 1.0 4.0 0.03 0.03 0.03 92 1016.0
20260902190052 75 344 2.0 4.0 0.03 0.03 0.03 90 1016.2
20260902185509 75 209 0.0 0.0 0.03 0.03 0.03 91 1016.2
20260902185044 75 295 0.0 3.0 0.03 0.03 0.03 91 1016.7
20260902184517 75 97 0.0 3.0 0.03 0.03 0.03 90 1016.7
20260902184043 75 108 0.0 0.0 0.03 0.03 0.03 89 1016.4
20260902183513 75 107 0.0 0.0 0.03 0.03 0.03 89 1016.4
20260902183103 76 107 0.0 0.0 0.03 0.03 0.03 88 1016.2
20260902182509 76 107 0.0 0.0 0.03 0.03 0.03 87 1016.4
20260902182039 77 152 0.0 4.0 0.02 0.02 0.02 85 1016.3
20260902181510 78 331 2.0 8.0 0.01 0.01 0.01 81 1016.5
20260902181041 79 234 2.0 8.0 0.00 0.00 0.00 78 1016.0
20260902180512 79 198 3.0 14.0 0.00 0.00 0.00 76 1015.8
20260902180027 79 170 4.0 15.0 0.00 0.00 0.00 76 1016.3
20260902175504 80 180 6.0 19.0 0.00 0.00 0.00 73 1016.5
20260902175038 82 153 10.0 19.0 0.00 0.00 0.00 70 1016.5
20260902174508 83 146 9.0 17.0 0.00 0.00 0.00 69 1016.4
20260902174042 85 117 8.0 30.0 0.00 0.00 0.00 69 1016.2
20260902173512 88 196 15.0 30.0 0.00 0.00 0.00 67 1016.1
20260902173046 90 214 1.0 6.0 0.00 0.00 0.00 69 1015.5
20260902172518 90 185 3.0 6.0 0.00 0.00 0.00 69 1015.6
20260902172047 90 194 2.0 4.0 0.00 0.00 0.00 69 1015.7
20260902171524 89 225 0.0 8.0 0.00 0.00 0.00 74 1015.8
20260902171058 89 92 0.0 8.0 0.00 0.00 0.00 70 1015.9
20260902170515 89 106 0.0 2.0 0.00 0.00 0.00 69 1015.8
20260902170043 89 267 0.0 6.0 0.00 0.00 0.00 71 1015.8
20260902165513 89 240 2.0 9.0 0.00 0.00 0.00 71 1015.7
20260902165050 88 305 3.0 9.0 0.00 0.00 0.00 72 1015.8
20260902164520 88 239 0.0 4.0 0.00 0.00 0.00 73 1015.9
20260902164053 87 82 1.0 5.0 0.00 0.00 0.00 74 1016.0
20260902163527 88 149 2.0 6.0 0.00 0.00 0.00 74 1016.0
20260902163004 88 231 1.0 6.0 0.00 0.00 0.00 70 1015.9
20260902162531 88 220 0.0 2.0 0.00 0.00 0.00 72 1016.0
20260902162009 88 257 0.0 7.0 0.00 0.00 0.00 74 1016.1
20260902161537 87 274 2.0 7.0 0.00 0.00 0.00 72 1016.0
20260902161009 87 180 0.0 6.0 0.00 0.00 0.00 76 1016.0
20260902160543 87 296 0.0 6.0 0.00 0.00 0.00 74 1016.1
20260902160113 87 286 1.0 6.0 0.00 0.00 0.00 73 1016.2
20260902160001 87 274 0.0 1.0 0.00 0.00 0.00 74 1016.2
20260902155532 87 88 0.0 2.0 0.00 0.00 0.00 74 1016.0
20260902155009 87 5 0.0 4.0 0.00 0.00 0.00 72 1016.0
20260902154537 87 255 2.0 6.0 0.00 0.00 0.00 73 1016.1
20260902154012 86 207 1.0 7.0 0.00 0.00 0.00 74 1016.1
20260902153527 86 304 3.0 7.0 0.00 0.00 0.00 73 1016.1
20260902153019 86 128 0.0 0.0 0.00 0.00 0.00 73 1016.0
20260902152537 86 181 0.0 0.0 0.00 0.00 0.00 75 1016.0
20260902152009 86 286 0.0 4.0 0.00 0.00 0.00 75 1016.0
20260902151543 85 231 0.0 4.0 0.00 0.00 0.00 78 1016.0
20260902151057 85 319 0.0 6.0 0.00 0.00 0.00 76 1015.9
20260902150529 85 252 0.0 2.0 0.00 0.00 0.00 76 1015.9
20260902150005 85 39 0.0 5.0 0.00 0.00 0.00 75 1015.8
20260902145539 85 246 1.0 5.0 0.00 0.00 0.00 75 1015.7
20260902145010 84 280 0.0 4.0 0.00 0.00 0.00 75 1015.8
20260902144544 84 190 0.0 3.0 0.00 0.00 0.00 75 1015.7
20260902144012 84 304 0.0 6.0 0.00 0.00 0.00 75 1015.6
20260902143527 84 249 1.0 6.0 0.00 0.00 0.00 75 1015.6
20260902143003 84 152 0.0 4.0 0.00 0.00 0.00 77 1015.8
20260902142537 83 142 0.0 4.0 0.00 0.00 0.00 75 1015.8
20260902142010 83 204 0.0 2.0 0.00 0.00 0.00 76 1015.8
20260902141522 83 265 0.0 7.0 0.00 0.00 0.00 77 1016.0
20260902141057 83 260 1.0 7.0 0.00 0.00 0.00 78 1016.0
20260902140531 83 222 0.0 6.0 0.00 0.00 0.00 77 1015.9
20260902140105 83 256 2.0 4.0 0.00 0.00 0.00 76 1016.1
20260902140000 82 234 2.0 4.0 0.00 0.00 0.00 76 1016.0
20260902135532 82 272 1.0 5.0 0.00 0.00 0.00 76 1016.1
20260902135050 82 224 1.0 4.0 0.00 0.00 0.00 78 1016.2
20260902134521 82 238 0.0 0.0 0.00 0.00 0.00 78 1016.2
20260902134054 81 246 0.0 0.0 0.00 0.00 0.00 78 1016.1
20260902133533 81 312 0.0 0.0 0.00 0.00 0.00 79 1016.1
20260902133057 81 75 0.0 0.0 0.00 0.00 0.00 79 1016.0
20260902132535 81 163 0.0 0.0 0.00 0.00 0.00 78 1015.8
20260902132048 80 209 0.0 0.0 0.00 0.00 0.00 79 1015.9
20260902131532 80 175 0.0 0.0 0.00 0.00 0.00 78 1015.8
20260902131046 80 147 0.0 0.0 0.00 0.00 0.00 79 1015.9
20260902130517 80 186 0.0 0.0 0.00 0.00 0.00 79 1015.9
20260902130051 79 218 0.0 0.0 0.00 0.00 0.00 82 1015.9
20260902125508 78 218 0.0 0.0 0.00 0.00 0.00 84 1016.0
20260902125024 78 218 0.0 0.0 0.00 0.00 0.00 86 1016.0
20260902124559 77 218 0.0 0.0 0.00 0.00 0.00 85 1015.9
20260902124034 77 218 0.0 0.0 0.00 0.00 0.00 89 1016.0
20260902123508 76 218 0.0 0.0 0.00 0.00 0.00 89 1016.0
20260902123032 76 218 0.0 0.0 0.00 0.00 0.00 91 1016.0
20260902122542 75 218 0.0 0.0 0.00 0.00 0.00 91 1015.9
20260902122016 75 218 0.0 0.0 0.00 0.00 0.00 92 1015.9
20260902121548 74 218 0.0 0.0 0.00 0.00 0.00 92 1015.9
20260902121022 74 218 0.0 0.0 0.00 0.00 0.00 93 1015.9
20260902120534 73 218 0.0 0.0 0.00 0.00 0.00 94 1015.9
20260902120012 73 218 0.0 0.0 0.00 0.00 0.00 94 1015.7
20260902115546 73 218 0.0 0.0 0.00 0.00 0.00 94 1015.6
20260902115020 73 218 0.0 2.0 0.00 0.00 0.00 94 1015.7
20260902114554 72 218 0.0 2.0 0.00 0.00 0.00 94 1015.5
20260902114012 72 286 0.0 3.0 0.00 0.00 0.00 95 1015.5
20260902113543 72 302 2.0 4.0 0.00 0.00 0.00 95 1015.6
20260902113014 72 197 0.0 4.0 0.00 0.00 0.00 95 1015.8
20260902112551 72 217 2.0 3.0 0.00 0.00 0.00 94 1015.4
20260902112020 72 239 0.0 4.0 0.00 0.00 0.00 94 1015.7
20260902111552 72 279 2.0 4.0 0.00 0.00 0.00 94 1015.7
20260902111008 72 30 3.0 5.0 0.00 0.00 0.00 94 1016.1
20260902110544 71 72 0.0 5.0 0.00 0.00 0.00 94 1016.1
20260902110015 72 71 2.0 4.0 0.00 0.00 0.00 94 1016.1
20260902105550 72 213 0.0 2.0 0.00 0.00 0.00 94 1016.0
20260902105016 72 213 0.0 0.0 0.00 0.00 0.00 93 1015.9
20260902104532 72 213 0.0 0.0 0.00 0.00 0.00 93 1015.8
20260902104008 72 213 0.0 0.0 0.00 0.00 0.00 93 1015.8
20260902103543 72 213 0.0 2.0 0.00 0.00 0.00 93 1015.8
20260902103012 72 213 0.0 2.0 0.00 0.00 0.00 92 1015.8
20260902102542 72 213 0.0 1.0 0.00 0.00 0.00 92 1015.8
20260902102054 72 213 0.0 1.0 0.00 0.00 0.00 92 1015.7
20260902101533 72 213 0.0 2.0 0.00 0.00 0.00 92 1015.7
20260902101058 72 213 0.0 2.0 0.00 0.00 0.00 92 1015.6
20260902101002 72 213 0.0 2.0 0.00 0.00 0.00 92 1015.6
20260902100534 72 213 1.0 2.0 0.00 0.00 0.00 92 1015.6
20260902100004 72 246 0.0 0.0 0.00 0.00 0.00 92 1015.6
20260902095538 72 246 0.0 1.0 0.00 0.00 0.00 92 1015.6
20260902095051 72 246 0.0 1.0 0.00 0.00 0.00 92 1015.5
20260902094524 73 246 0.0 1.0 0.00 0.00 0.00 91 1015.4
20260902094056 73 246 0.0 2.0 0.00 0.00 0.00 91 1015.4
20260902093530 73 246 0.0 3.0 0.00 0.00 0.00 91 1015.4
20260902093044 73 236 1.0 3.0 0.00 0.00 0.00 91 1015.4
20260902092517 73 230 2.0 3.0 0.00 0.00 0.00 91 1015.3
20260902092053 73 7 0.0 0.0 0.00 0.00 0.00 91 1015.3
20260902091525 73 7 0.0 0.0 0.00 0.00 0.00 91 1015.3
20260902091056 73 7 0.0 0.0 0.00 0.00 0.00 91 1015.3
20260902090531 73 7 0.0 0.0 0.00 0.00 0.00 91 1015.3
20260902085519 73 7 0.0 0.0 0.00 0.00 0.00 90 1015.3
20260902085047 73 7 0.0 2.0 0.00 0.00 0.00 89 1015.3
20260902084523 73 7 0.0 2.0 0.00 0.00 0.00 90 1015.4
20260902084054 73 7 0.0 1.0 0.00 0.00 0.00 90 1015.4
20260902083528 73 7 0.0 2.0 0.00 0.00 0.00 90 1015.4
20260902083039 73 7 0.0 2.0 0.00 0.00 0.00 91 1015.4
20260902082511 73 7 0.0 4.0 0.00 0.00 0.00 91 1015.3
20260902082042 73 352 1.0 4.0 0.00 0.00 0.00 90 1015.3
20260902081514 73 268 0.0 1.0 0.00 0.00 0.00 90 1015.3
20260902081049 73 268 0.0 1.0 0.00 0.00 0.00 90 1015.3
20260902080523 73 268 0.0 2.0 0.00 0.00 0.00 90 1015.3
20260902080039 73 268 1.0 2.0 0.00 0.00 0.00 90 1015.1
20260902075511 73 268 0.0 0.0 0.00 0.00 0.00 88 1015.1
20260902075044 74 268 0.0 1.0 0.00 0.00 0.00 88 1015.0
20260902074514 74 268 0.0 3.0 0.00 0.00 0.00 88 1014.9
20260902074046 74 268 1.0 3.0 0.00 0.00 0.00 88 1014.9
20260902073525 74 269 2.0 3.0 0.00 0.00 0.00 88 1014.8
20260902073102 74 229 0.0 0.0 0.00 0.00 0.00 87 1014.8
20260902072527 74 229 0.0 0.0 0.00 0.00 0.00 87 1014.9
20260902072005 75 229 0.0 0.0 0.00 0.00 0.00 86 1014.9
20260902071539 75 229 0.0 0.0 0.00 0.00 0.00 85 1014.9
20260902071010 75 229 0.0 0.0 0.00 0.00 0.00 85 1014.9
20260902070543 75 229 0.0 0.0 0.00 0.00 0.00 84 1014.9
20260902070059 76 229 0.0 0.0 0.00 0.00 0.00 83 1014.9
20260902070002 76 229 0.0 0.0 0.00 0.00 0.00 83 1014.9
20260902065535 76 229 0.0 0.0 0.00 0.00 0.00 83 1014.8
20260902065007 76 229 0.0 0.0 0.00 0.00 0.00 82 1014.7
20260902064544 77 229 0.0 0.0 0.00 0.00 0.00 81 1014.7
20260902064053 77 229 0.0 0.0 0.00 0.00 0.00 80 1014.7
20260902063525 77 229 0.0 0.0 0.00 0.00 0.00 79 1014.7
20260902063057 78 229 0.0 2.0 0.00 0.00 0.00 79 1014.8
20260902062538 78 229 0.0 2.0 0.00 0.00 0.00 78 1014.8
20260902062006 78 177 0.0 4.0 0.00 0.00 0.00 78 1014.8
20260902061540 78 213 0.0 5.0 0.00 0.00 0.00 77 1014.7
20260902061054 79 193 2.0 5.0 0.00 0.00 0.00 76 1014.8
20260902060525 79 76 0.0 6.0 0.00 0.00 0.00 75 1014.9
20260902060005 79 187 3.0 6.0 0.00 0.00 0.00 74 1014.9
20260902055538 80 213 2.0 5.0 0.00 0.00 0.00 74 1014.8
20260902055009 80 193 2.0 6.0 0.00 0.00 0.00 73 1014.9
20260902054600 80 196 1.0 6.0 0.00 0.00 0.00 73 1014.9
20260902054009 80 174 0.0 5.0 0.00 0.00 0.00 72 1014.9
20260902053544 80 176 3.0 5.0 0.00 0.00 0.00 72 1014.7
20260902053020 80 128 2.0 5.0 0.00 0.00 0.00 72 1014.7
20260902052553 80 109 3.0 8.0 0.00 0.00 0.00 72 1014.5
20260902052035 80 81 3.0 8.0 0.00 0.00 0.00 72 1014.5
20260902051505 81 75 3.0 9.0 0.00 0.00 0.00 71 1014.5
20260902051021 81 90 4.0 9.0 0.00 0.00 0.00 71 1014.5
20260902050552 81 54 4.0 6.0 0.00 0.00 0.00 71 1014.5
20260902050021 81 58 4.0 9.0 0.00 0.00 0.00 71 1014.5
20260902045556 81 73 5.0 10.0 0.00 0.00 0.00 71 1014.5
20260902045500 81 133 6.0 10.0 0.00 0.00 0.00 71 1014.4
20260902045015 81 17 6.0 13.0 0.00 0.00 0.00 71 1014.4
20260902044552 81 41 7.0 13.0 0.00 0.00 0.00 71 1014.3
20260902044021 80 42 8.0 11.0 0.00 0.00 0.00 71 1014.3
20260902043555 80 133 5.0 9.0 0.00 0.00 0.00 71 1014.4
20260902043028 81 10 6.0 10.0 0.00 0.00 0.00 71 1014.4
20260902042557 81 21 6.0 10.0 0.00 0.00 0.00 70 1014.4
20260902042027 81 133 5.0 11.0 0.00 0.00 0.00 70 1014.4
20260902041559 81 25 5.0 11.0 0.00 0.00 0.00 70 1014.4
20260902041503 81 12 5.0 11.0 0.00 0.00 0.00 70 1014.4
20260902041033 81 73 5.0 10.0 0.00 0.00 0.00 70 1014.4
20260902040503 82 36 5.0 10.0 0.00 0.00 0.00 69 1014.5
20260902040023 82 50 6.0 11.0 0.00 0.00 0.00 69 1014.4
20260902035550 82 40 5.0 12.0 0.00 0.00 0.00 69 1014.5
20260902035028 82 84 7.0 12.0 0.00 0.00 0.00 68 1014.4
20260902034505 83 75 6.0 11.0 0.00 0.00 0.00 68 1014.4
20260902034038 83 39 5.0 11.0 0.00 0.00 0.00 68 1014.3
20260902033506 83 65 6.0 10.0 0.00 0.00 0.00 67 1014.3
20260902033035 83 63 4.0 11.0 0.00 0.00 0.00 67 1014.1
20260902032513 83 82 5.0 11.0 0.00 0.00 0.00 67 1014.1
20260902032048 83 61 6.0 12.0 0.00 0.00 0.00 67 1013.9
20260902031521 83 72 6.0 15.0 0.00 0.00 0.00 66 1013.7
20260902031053 83 51 8.0 15.0 0.00 0.00 0.00 66 1013.5
20260902030529 83 18 7.0 14.0 0.00 0.00 0.00 66 1013.5
20260902030059 84 47 8.0 15.0 0.00 0.00 0.00 66 1013.5
20260902025537 84 46 10.0 16.0 0.00 0.00 0.00 65 1013.5
20260902025006 83 44 7.0 14.0 0.00 0.00 0.00 66 1013.4
20260902024543 83 44 8.0 14.0 0.00 0.00 0.00 66 1013.4
20260902024012 83 133 8.0 13.0 0.00 0.00 0.00 66 1013.6
20260902023528 83 66 7.0 12.0 0.00 0.00 0.00 67 1013.6
20260902023005 83 49 5.0 11.0 0.00 0.00 0.00 67 1013.6
20260902022539 83 63 3.0 8.0 0.00 0.00 0.00 67 1013.6
20260902022006 83 23 4.0 8.0 0.00 0.00 0.00 67 1013.7
20260902021540 83 46 3.0 8.0 0.00 0.00 0.00 67 1013.7
20260902021012 83 46 2.0 9.0 0.00 0.00 0.00 67 1013.7
20260902020529 83 39 6.0 12.0 0.00 0.00 0.00 67 1013.6
20260902020006 84 27 4.0 12.0 0.00 0.00 0.00 67 1013.6
20260902015542 84 19 7.0 12.0 0.00 0.00 0.00 67 1013.5
20260902015012 84 25 5.0 11.0 0.00 0.00 0.00 67 1013.4
20260902014542 84 23 5.0 11.0 0.00 0.00 0.00 66 1013.5
20260902014015 84 38 5.0 13.0 0.00 0.00 0.00 66 1013.6
20260902013551 85 24 8.0 13.0 0.00 0.00 0.00 67 1013.6
20260902013022 85 51 4.0 11.0 0.00 0.00 0.00 67 1013.5
20260902012602 85 64 5.0 14.0 0.00 0.00 0.00 66 1013.5
20260902012034 85 30 7.0 14.0 0.00 0.00 0.00 67 1013.5
20260902011509 85 35 3.0 13.0 0.00 0.00 0.00 67 1013.3
20260902011036 85 42 7.0 14.0 0.00 0.00 0.00 67 1013.1
20260902010550 84 51 8.0 14.0 0.00 0.00 0.00 68 1012.9
20260902010018 84 43 8.0 14.0 0.00 0.00 0.00 69 1012.9
20260902005550 84 30 7.0 12.0 0.00 0.00 0.00 70 1012.8
20260902005022 84 40 6.0 11.0 0.00 0.00 0.00 71 1012.8
20260902004552 84 54 5.0 9.0 0.00 0.00 0.00 71 1012.7
20260902004026 84 55 3.0 8.0 0.00 0.00 0.00 71 1012.8
20260902003540 84 28 3.0 8.0 0.00 0.00 0.00 70 1012.7
20260902003012 84 59 4.0 8.0 0.00 0.00 0.00 70 1012.6
20260902002545 84 61 3.0 9.0 0.00 0.00 0.00 70 1012.6
20260902002018 85 65 5.0 9.0 0.00 0.00 0.00 69 1012.6
20260902001602 85 48 5.0 10.0 0.00 0.00 0.00 69 1012.5
20260902001020 85 61 5.0 10.0 0.00 0.00 0.00 69 1012.4
20260902000542 85 68 5.0 10.0 0.00 0.00 0.00 68 1012.2
20260902000015 85 23 4.0 9.0 0.00 0.00 0.00 68 1012.2
20260901235544 86 31 4.0 9.0 0.00 0.00 0.00 68 1012.0
20260901235014 86 28 5.0 8.0 0.00 0.00 0.00 68 1012.0
20260901234548 86 42 4.0 9.0 0.00 0.00 0.00 67 1011.9
20260901234024 86 39 4.0 9.0 0.00 0.00 0.00 67 1011.9
20260901233553 86 46 5.0 9.0 0.00 0.00 0.00 67 1012.0
20260901233025 86 2 3.0 9.0 0.00 0.00 0.00 67 1012.0
20260901232504 87 32 3.0 10.0 0.00 0.00 0.00 66 1012.0
20260901232039 87 23 4.0 10.0 0.00 0.00 0.00 65 1012.0
20260901231513 87 39 6.0 12.0 0.00 0.00 0.00 65 1012.0
20260901231027 87 37 6.0 12.0 0.00 0.00 0.00 66 1012.1
20260901230558 87 42 4.0 9.0 0.00 0.00 0.00 65 1012.0
20260901230502 87 31 5.0 9.0 0.00 0.00 0.00 65 1012.0
20260901230038 87 58 5.0 10.0 0.00 0.00 0.00 65 1012.0
20260901225507 88 27 6.0 12.0 0.00 0.00 0.00 65 1012.1
20260901225039 88 37 6.0 13.0 0.00 0.00 0.00 64 1012.0
20260901224554 88 38 7.0 13.0 0.00 0.00 0.00 64 1012.0
20260901224029 89 48 5.0 10.0 0.00 0.00 0.00 64 1012.1
20260901223600 89 40 5.0 10.0 0.00 0.00 0.00 64 1012.1
20260901223502 89 53 6.0 10.0 0.00 0.00 0.00 64 1012.0
20260901223036 89 15 5.0 10.0 0.00 0.00 0.00 64 1012.1
20260901222505 89 36 7.0 10.0 0.00 0.00 0.00 65 1012.1
20260901222047 89 17 5.0 10.0 0.00 0.00 0.00 64 1012.0
20260901221516 89 10 7.0 12.0 0.00 0.00 0.00 62 1012.1
20260901221050 89 7 7.0 12.0 0.00 0.00 0.00 62 1012.2
20260901220523 90 36 6.0 12.0 0.00 0.00 0.00 61 1012.2
20260901220115 90 27 6.0 11.0 0.00 0.00 0.00 61 1012.2
20260901215513 90 38 7.0 11.0 0.00 0.00 0.00 61 1012.3